Date String (YYYY-MM-DD hh:mm:ss) UTC,Instrument flags,absolute air pressure of the measurement (hPa),sample flow rate (lpm),inlet stack bypass flow (lpm),air temperature of the measurement (°C),ambient temperature measured by the external sensor (°C),aerosol sample conditioner tube jacket temperature (°C),OPC LED temperature (°C),internal box temperature (°C),relative humidity of the measurement (%),span deviation,mass concentration of particles derived from Lorenz-Mie calculation of OPC scattering (μg/m³),mass concentration of particles derived from Lorenz-Mie calculation of OPC scattering (μg/m³),mass concentration of particles derived from Lorenz-Mie calculation of OPC scattering (μg/m³)
DateTimeUTC,F1_M11,P_M11,Q1_M11,Q2_M11,T1_M11,T2_M11,T3_M11,T4_M11,T5_M11,U1_M11,ZSPAN_M11,X2_M11,X0_M11,X1_M11
2023-08-18 23:00:00,SystemResetWarning,0829.8,4.99,000.00,031.9,025.4,000.0,039.3,030.6,25.6,0000.0,0002.91,0006.38,0002.30
2023-08-18 23:01:00,SystemResetWarning,0829.8,5.00,000.00,031.8,024.2,000.0,039.1,030.3,25.3,0000.0,0002.92,0005.91,0002.30
2023-08-18 23:02:00,SystemResetWarning,0829.8,5.00,000.00,031.7,024.0,000.0,039.0,030.2,26.4,0000.0,0002.94,0004.50,0002.30
2023-08-18 23:03:00,SystemResetWarning,0829.8,5.01,000.00,031.5,024.2,000.0,039.1,030.0,28.2,0000.0,0003.01,0004.71,0002.32
2023-08-18 23:04:00,SystemResetWarning,0829.9,5.01,000.00,031.3,024.7,000.0,039.1,030.1,30.0,0000.0,0003.07,0005.36,0002.31
2023-08-18 23:05:00,SystemResetWarning,0829.9,5.00,000.00,031.2,025.1,000.0,039.0,030.2,29.7,0000.0,0003.06,0005.32,0002.30
2023-08-18 23:06:00,SystemResetWarning,0829.9,4.99,000.00,031.1,025.5,000.0,039.0,030.3,29.3,0000.0,0003.05,0005.35,0002.30
2023-08-18 23:07:00,SystemResetWarning,0830.0,5.00,000.00,031.0,025.9,000.0,039.0,030.4,30.0,0000.0,0003.08,0005.81,0002.30
2023-08-18 23:08:00,SystemResetWarning,0830.0,4.99,000.00,031.0,025.2,000.0,038.9,030.3,30.7,0000.0,0003.04,0005.91,0002.29
2023-08-18 23:09:00,SystemResetWarning,0830.0,4.99,000.00,030.9,024.1,000.0,038.7,029.9,30.5,0000.0,0003.03,0005.93,0002.28
2023-08-18 23:10:00,SystemResetWarning,0829.9,5.01,000.00,030.8,023.9,000.0,038.6,029.8,31.6,0000.0,0003.05,0006.10,0002.28
2023-08-18 23:11:00,SystemResetWarning,0830.0,5.01,000.00,030.6,024.1,000.0,038.6,029.6,32.1,0000.0,0003.02,0006.10,0002.29
2023-08-18 23:12:00,SystemResetWarning,0830.0,4.98,000.00,030.4,024.6,000.0,038.5,029.8,34.2,0000.0,0003.07,0006.23,0002.30
2023-08-18 23:13:00,SystemResetWarning,0829.9,5.01,000.00,030.4,025.0,000.0,038.5,030.0,36.1,0000.0,0003.10,0006.53,0002.32
2023-08-18 23:14:00,SystemResetWarning,0829.9,5.00,000.00,030.6,025.5,000.0,038.5,030.2,36.6,0000.0,0003.09,0006.54,0002.32
2023-08-18 23:15:00,SystemResetWarning,0830.0,5.00,000.00,030.8,025.9,000.0,038.5,030.4,35.6,0000.0,0003.09,0006.11,0002.35
2023-08-18 23:16:00,SystemResetWarning,0830.0,4.99,000.00,031.1,026.2,000.0,038.5,030.6,35.1,0000.0,0003.13,0006.20,0002.38
2023-08-18 23:17:00,SystemResetWarning,0830.0,5.03,000.00,031.5,025.5,000.0,038.4,030.6,33.7,0000.0,0003.15,0006.23,0002.39
2023-08-18 23:18:00,SystemResetWarning,0830.0,4.96,000.00,031.6,024.3,000.0,038.4,030.3,29.7,0000.0,0003.14,0005.94,0002.40
2023-08-18 23:19:00,SystemResetWarning,0829.9,5.03,000.00,031.7,024.0,000.0,038.3,030.2,28.7,0000.0,0003.15,0005.61,0002.41
2023-08-18 23:20:00,SystemResetWarning,0829.9,4.99,000.00,031.6,024.3,000.0,038.4,029.9,25.3,0000.0,0003.16,0005.65,0002.42
2023-08-18 23:21:00,SystemResetWarning,0830.0,5.00,000.00,031.4,024.7,000.0,038.6,030.0,24.9,0000.0,0003.14,0005.45,0002.41
2023-08-18 23:22:00,SystemResetWarning,0830.0,5.00,000.00,031.4,025.1,000.0,038.6,030.2,25.7,0000.0,0003.13,0005.51,0002.40
2023-08-18 23:23:00,SystemResetWarning,0830.0,5.01,000.00,031.4,025.5,000.0,038.7,030.3,28.2,0000.0,0003.14,0005.57,0002.39
2023-08-18 23:24:00,SystemResetWarning,0830.0,5.00,000.00,031.3,025.9,000.0,038.8,030.4,28.4,0000.0,0003.09,0005.24,0002.36
2023-08-18 23:25:00,SystemResetWarning,0830.0,4.99,000.00,031.3,026.0,000.0,038.8,030.4,27.1,0000.0,0003.08,0005.21,0002.35
2023-08-18 23:26:00,SystemResetWarning,0830.0,4.99,000.00,031.3,024.8,000.0,038.7,030.3,25.5,0000.0,0003.01,0005.69,0002.31
2023-08-18 23:27:00,SystemResetWarning,0830.0,5.00,000.00,031.3,024.1,000.0,038.6,030.1,26.9,0000.0,0002.94,0006.26,0002.27
2023-08-18 23:28:00,SystemResetWarning,0830.1,5.01,000.00,031.1,024.1,000.0,038.6,030.0,27.2,0000.0,0002.90,0006.22,0002.24
2023-08-18 23:29:00,SystemResetWarning,0830.0,5.00,000.00,030.9,024.4,000.0,038.6,029.9,27.2,0000.0,0002.92,0006.23,0002.20
2023-08-18 23:30:00,SystemResetWarning,0830.1,5.00,000.00,030.8,024.8,000.0,038.6,030.0,27.6,0000.0,0002.90,0007.05,0002.16
2023-08-18 23:31:00,SystemResetWarning,0830.0,5.00,000.00,030.7,025.3,000.0,038.6,030.1,27.8,0000.0,0002.92,0007.21,0002.13
2023-08-18 23:32:00,SystemResetWarning,0830.0,5.00,000.00,030.7,025.7,000.0,038.6,030.2,28.6,0000.0,0002.91,0007.47,0002.11
2023-08-18 23:33:00,SystemResetWarning,0830.0,4.99,000.00,030.6,026.1,000.0,038.6,030.3,27.5,0000.0,0002.91,0007.60,0002.10
2023-08-18 23:34:00,SystemResetWarning,0830.0,4.99,000.00,030.6,025.5,000.0,038.5,030.3,25.9,0000.0,0002.87,0007.54,0002.08
2023-08-18 23:35:00,SystemResetWarning,0830.0,5.00,000.00,030.5,024.3,000.0,038.4,030.0,25.2,0000.0,0002.88,0007.57,0002.08
2023-08-18 23:36:00,SystemResetWarning,0830.0,5.01,000.00,030.4,024.0,000.0,038.2,029.9,25.4,0000.0,0002.89,0007.92,0002.07
2023-08-18 23:37:00,SystemResetWarning,0830.0,5.00,000.00,030.3,024.3,000.0,038.2,029.9,26.0,0000.0,0002.92,0007.67,0002.07
2023-08-18 23:38:00,SystemResetWarning,0830.0,5.00,000.00,030.1,024.6,000.0,038.2,029.8,27.5,0000.0,0002.87,0007.59,0002.08
2023-08-18 23:39:00,SystemResetWarning,0830.0,5.00,000.00,030.0,025.1,000.0,038.2,029.9,27.7,0000.0,0002.87,0007.98,0002.09
2023-08-18 23:40:00,SystemResetWarning,0830.0,5.00,000.00,030.0,025.5,000.0,038.2,030.0,27.6,0000.0,0002.85,0008.20,0002.11
2023-08-18 23:41:00,SystemResetWarning,0830.0,5.00,000.00,030.0,025.9,000.0,038.2,030.1,27.8,0000.0,0002.88,0007.86,0002.15
2023-08-18 23:42:00,SystemResetWarning,0830.1,4.99,000.00,030.0,026.0,000.0,038.1,030.2,27.8,0000.0,0002.91,0007.79,0002.20
2023-08-18 23:43:00,SystemResetWarning,0830.1,4.98,000.00,029.9,024.9,000.0,037.9,029.9,28.0,0000.0,0002.96,0008.12,0002.23
2023-08-18 23:44:00,SystemResetWarning,0830.1,5.01,000.00,029.8,024.0,000.0,037.8,029.8,30.6,0000.0,0002.99,0007.96,0002.27
2023-08-18 23:45:00,SystemResetWarning,0830.1,5.01,000.00,029.7,024.0,000.0,037.7,029.7,31.0,0000.0,0003.05,0008.42,0002.30
2023-08-18 23:46:00,SystemResetWarning,0830.1,4.99,000.00,029.5,024.3,000.0,037.7,029.6,30.7,0000.0,0003.12,0008.83,0002.32
2023-08-18 23:47:00,SystemResetWarning,0830.1,5.00,000.00,029.5,024.7,000.0,037.7,029.7,31.9,0000.0,0003.10,0008.47,0002.33
2023-08-18 23:48:00,SystemResetWarning,0830.1,5.00,000.00,029.4,025.2,000.0,037.7,029.8,31.3,0000.0,0003.10,0008.37,0002.33
2023-08-18 23:49:00,SystemResetWarning,0830.1,5.00,000.00,029.4,025.6,000.0,037.7,029.9,31.1,0000.0,0003.07,0008.06,0002.29
2023-08-18 23:50:00,SystemResetWarning,0830.2,5.00,000.00,029.4,026.0,000.0,037.7,030.0,31.8,0000.0,0003.05,0007.56,0002.25
2023-08-18 23:51:00,SystemResetWarning,0830.2,5.00,000.00,029.4,026.1,000.0,037.6,030.1,29.2,0000.0,0002.99,0007.06,0002.22
2023-08-18 23:52:00,SystemResetWarning,0830.1,4.99,000.00,029.4,025.0,000.0,037.5,029.9,29.4,0000.0,0002.95,0007.10,0002.19
2023-08-18 23:53:00,SystemResetWarning,0830.1,5.00,000.00,029.3,024.1,000.0,037.4,029.7,28.5,0000.0,0002.88,0006.94,0002.15
2023-08-18 23:54:00,SystemResetWarning,0830.1,5.00,000.00,029.2,024.0,000.0,037.3,029.5,28.7,0000.0,0002.83,0005.69,0002.13
2023-08-18 23:55:00,SystemResetWarning,0830.2,5.01,000.00,029.0,024.3,000.0,037.3,029.4,30.0,0000.0,0002.78,0005.62,0002.09
2023-08-18 23:56:00,SystemResetWarning,0830.2,5.00,000.00,029.0,024.8,000.0,037.3,029.5,31.3,0000.0,0002.79,0005.05,0002.06
2023-08-18 23:57:00,SystemResetWarning,0830.2,5.00,000.00,028.9,025.2,000.0,037.3,029.7,30.4,0000.0,0002.77,0004.47,0002.04
2023-08-18 23:58:00,SystemResetWarning,0830.2,5.00,000.00,028.9,025.6,000.0,037.3,029.8,30.4,0000.0,0002.84,0004.63,0002.03
2023-08-18 23:59:00,SystemResetWarning,0830.3,4.99,000.00,028.9,026.0,000.0,037.3,029.9,31.4,0000.0,0002.85,0004.71,0002.02
